• In Czech Republic
  • List of Countries
  • For 7 days
  • Water Temperature
  • Satellite Maps
  • Weather Map
  • Weather Widgets
  • user-avatar
    Login

    Hourly Weather Goiania

    Today, 20 October, Saturday

    Time Temperature Precipitation Wind Pressure Humidity
    00:00 +21°C° 0.1 mm 0 mps 696 mmHg 89%
    01:00 +21°C° 0 mm 0 mps 696 mmHg 88%
    02:00 +21°C° 0 mm 0 mps 696 mmHg 88%
    03:00 +21°C° 0 mm 0 mps 696 mmHg 87%
    04:00 +21°C° 0 mm 0 mps 696 mmHg 88%
    05:00 +21°C° 0 mm 0 mps 696 mmHg 88%
    06:00 +21°C° 0 mm 0 mps 696 mmHg 88%
    07:00 +24°C° 0 mm 1 mps 696 mmHg 83%
    08:00 +26°C° 0 mm 1 mps 697 mmHg 78%
    09:00 +27°C° 0 mm 1 mps 698 mmHg 74%
    10:00 +28°C° 0.5 mm 1 mps 697 mmHg 71%
    11:00 +29°C° 0.5 mm 1 mps 697 mmHg 68%
    12:00 +30°C° 0.5 mm 1 mps 697 mmHg 65%
    13:00 +30°C° 0.8 mm 1 mps 696 mmHg 65%
    14:00 +30°C° 0.8 mm 1 mps 696 mmHg 65%
    15:00 +30°C° 0.8 mm 1 mps 695 mmHg 65%
    16:00 +29°C° 1.4 mm 1 mps 695 mmHg 71%
    17:00 +28°C° 1.4 mm 1 mps 695 mmHg 77%
    18:00 +26°C° 1.4 mm 1 mps 695 mmHg 84%
    19:00 +26°C° 0.5 mm 1 mps 695 mmHg 85%
    20:00 +25°C° 0.5 mm 1 mps 695 mmHg 86%
    21:00 +25°C° 0.5 mm 2 mps 696 mmHg 87%
    22:00 +24°C° 0 mm 1 mps 696 mmHg 87%
    23:00 +24°C° 0 mm 1 mps 696 mmHg 88%

    Tomorrow, 21 October, Sunday

    Time Temperature Precipitation Wind Pressure Humidity
    00:00 +24°C° 0 mm 1 mps 696 mmHg 88%
    01:00 +24°C° 0.2 mm 1 mps 695 mmHg 89%
    02:00 +23°C° 0.2 mm 1 mps 695 mmHg 89%
    03:00 +23°C° 0.2 mm 1 mps 695 mmHg 89%
    04:00 +23°C° 0 mm 1 mps 695 mmHg 90%
    05:00 +23°C° 0 mm 1 mps 695 mmHg 90%
    06:00 +23°C° 0 mm 2 mps 696 mmHg 91%
    07:00 +25°C° 0 mm 2 mps 696 mmHg 84%
    08:00 +27°C° 0 mm 3 mps 697 mmHg 78%
    09:00 +28°C° 0 mm 3 mps 698 mmHg 71%
    10:00 +30°C° 0.7 mm 3 mps 698 mmHg 66%
    11:00 +31°C° 0.7 mm 3 mps 698 mmHg 61%
    12:00 +32°C° 0.7 mm 2 mps 697 mmHg 56%
    13:00 +32°C° 2 mm 2 mps 697 mmHg 58%
    14:00 +32°C° 2 mm 2 mps 696 mmHg 60%
    15:00 +31°C° 2 mm 2 mps 695 mmHg 62%
    16:00 +30°C° 2.6 mm 2 mps 695 mmHg 69%
    17:00 +28°C° 2.6 mm 2 mps 695 mmHg 76%
    18:00 +26°C° 2.6 mm 3 mps 695 mmHg 83%
    19:00 +26°C° 0.4 mm 3 mps 696 mmHg 85%
    20:00 +25°C° 0.4 mm 3 mps 696 mmHg 86%
    21:00 +24°C° 0.4 mm 3 mps 697 mmHg 88%
    22:00 +24°C° 0.2 mm 3 mps 697 mmHg 89%
    23:00 +23°C° 0.2 mm 4 mps 697 mmHg 89%

    Day after tomorrow, 22 October, Monday

    Time Temperature Precipitation Wind Pressure Humidity
    00:00 +23°C° 0.2 mm 4 mps 697 mmHg 90%
    01:00 +22°C° 0 mm 4 mps 696 mmHg 90%
    02:00 +22°C° 0 mm 4 mps 696 mmHg 89%
    03:00 +22°C° 0 mm 3 mps 695 mmHg 89%
    04:00 +22°C° 0.1 mm 3 mps 696 mmHg 89%
    05:00 +22°C° 0.1 mm 4 mps 696 mmHg 89%
    06:00 +22°C° 0.1 mm 4 mps 697 mmHg 88%
    07:00 +23°C° 0.1 mm 4 mps 698 mmHg 86%
    08:00 +25°C° 0.1 mm 4 mps 699 mmHg 83%
    09:00 +25°C° 0.1 mm 4 mps 699 mmHg 80%
    10:00 +27°C° 0.8 mm 4 mps 699 mmHg 76%
    11:00 +28°C° 0.8 mm 4 mps 699 mmHg 73%
    12:00 +29°C° 0.8 mm 4 mps 699 mmHg 69%
    13:00 +29°C° 1.4 mm 3 mps 698 mmHg 69%
    14:00 +29°C° 1.4 mm 3 mps 698 mmHg 69%
    15:00 +29°C° 1.4 mm 2 mps 697 mmHg 69%
    16:00 +28°C° 1.4 mm 2 mps 697 mmHg 74%
    17:00 +27°C° 1.4 mm 1 mps 697 mmHg 79%
    18:00 +26°C° 1.4 mm 1 mps 697 mmHg 84%
    19:00 +25°C° 0.8 mm 1 mps 697 mmHg 85%
    20:00 +25°C° 0.8 mm 1 mps 698 mmHg 86%
    21:00 +24°C° 0.8 mm 1 mps 698 mmHg 87%
    22:00 +24°C° 0.3 mm 1 mps 698 mmHg 88%
    23:00 +24°C° 0.3 mm 1 mps 698 mmHg 89%

    23 October, Tuesday

    Time Temperature Precipitation Wind Pressure Humidity
    00:00 +24°C° 0.3 mm 2 mps 698 mmHg 90%
    01:00 +23°C° 0 mm 2 mps 698 mmHg 90%
    02:00 +23°C° 0 mm 2 mps 697 mmHg 90%
    03:00 +23°C° 0 mm 1 mps 697 mmHg 90%
    04:00 +23°C° 0 mm 2 mps 697 mmHg 90%
    05:00 +23°C° 0 mm 2 mps 697 mmHg 90%
    06:00 +23°C° 0 mm 2 mps 698 mmHg 90%
    07:00 +24°C° 0 mm 2 mps 698 mmHg 85%
    08:00 +25°C° 0 mm 3 mps 699 mmHg 80%
    09:00 +27°C° 0 mm 3 mps 700 mmHg 76%
    10:00 +28°C° 0 mm 3 mps 699 mmHg 72%
    11:00 +29°C° 0 mm 3 mps 699 mmHg 67%
    12:00 +30°C° 0 mm 3 mps 699 mmHg 63%
    13:00 +30°C° 0.6 mm 3 mps 698 mmHg 64%
    14:00 +30°C° 0.6 mm 3 mps 698 mmHg 64%
    15:00 +30°C° 0.6 mm 2 mps 697 mmHg 65%
    16:00 +29°C° 1.8 mm 2 mps 697 mmHg 71%
    17:00 +27°C° 1.8 mm 2 mps 697 mmHg 77%
    18:00 +26°C° 1.8 mm 1 mps 697 mmHg 83%
    19:00 +26°C° 0.9 mm 1 mps 698 mmHg 85%
    20:00 +25°C° 0.9 mm 2 mps 698 mmHg 86%
    21:00 +24°C° 0.9 mm 2 mps 698 mmHg 88%
    22:00 +24°C° 0.3 mm 2 mps 698 mmHg 89%
    23:00 +24°C° 0.3 mm 2 mps 698 mmHg 89%

    24 October, Wednesday

    Time Temperature Precipitation Wind Pressure Humidity
    00:00 +24°C° 0.3 mm 2 mps 698 mmHg 90%
    01:00 +24°C° 0 mm 2 mps 697 mmHg 90%
    02:00 +23°C° 0 mm 2 mps 697 mmHg 90%
    03:00 +23°C° 0 mm 2 mps 697 mmHg 90%
    04:00 +23°C° 0.3 mm 2 mps 697 mmHg 90%
    05:00 +23°C° 0.3 mm 2 mps 697 mmHg 90%
    06:00 +23°C° 0.3 mm 1 mps 698 mmHg 90%
    07:00 +24°C° 0.7 mm 2 mps 698 mmHg 86%
    08:00 +25°C° 0.7 mm 2 mps 699 mmHg 82%
    09:00 +26°C° 0.7 mm 2 mps 699 mmHg 79%
    10:00 +27°C° 1.3 mm 2 mps 699 mmHg 76%
    11:00 +28°C° 1.3 mm 2 mps 699 mmHg 72%
    12:00 +29°C° 1.3 mm 2 mps 699 mmHg 69%
    13:00 +29°C° 1.1 mm 2 mps 698 mmHg 71%
    14:00 +28°C° 1.1 mm 2 mps 698 mmHg 73%
    15:00 +28°C° 1.1 mm 2 mps 697 mmHg 75%
    16:00 +27°C° 1.4 mm 2 mps 697 mmHg 80%
    17:00 +26°C° 1.4 mm 2 mps 697 mmHg 84%
    18:00 +25°C° 1.4 mm 2 mps 697 mmHg 88%
    19:00 +24°C° 0.4 mm 2 mps 698 mmHg 89%
    20:00 +24°C° 0.4 mm 2 mps 698 mmHg 90%
    21:00 +24°C° 0.4 mm 2 mps 699 mmHg 91%
    22:00 +23°C° 0.1 mm 2 mps 698 mmHg 91%
    23:00 +23°C° 0.1 mm 2 mps 698 mmHg 91%

    25 October, Thursday

    Time Temperature Precipitation Wind Pressure Humidity
    00:00 +23°C° 0.1 mm 2 mps 698 mmHg 91%
    01:00 +23°C° 0 mm 2 mps 698 mmHg 91%
    02:00 +23°C° 0 mm 2 mps 697 mmHg 90%
    03:00 +23°C° 0 mm 1 mps 697 mmHg 90%
    04:00 +23°C° 0 mm 1 mps 697 mmHg 89%
    05:00 +23°C° 0 mm 1 mps 697 mmHg 88%
    06:00 +23°C° 0 mm 1 mps 697 mmHg 88%
    07:00 +24°C° 0.2 mm 1 mps 698 mmHg 83%
    08:00 +26°C° 0.2 mm 1 mps 699 mmHg 78%
    09:00 +27°C° 0.2 mm 1 mps 699 mmHg 73%
    10:00 +28°C° 0.7 mm 2 mps 699 mmHg 71%
    11:00 +28°C° 0.7 mm 2 mps 699 mmHg 69%
    12:00 +29°C° 0.7 mm 2 mps 698 mmHg 68%
    13:00 +29°C° 0.9 mm 2 mps 698 mmHg 69%
    14:00 +28°C° 0.9 mm 1 mps 697 mmHg 70%
    15:00 +28°C° 0.9 mm 1 mps 696 mmHg 72%
    16:00 +27°C° 1.1 mm 1 mps 697 mmHg 76%
    17:00 +27°C° 1.1 mm 1 mps 697 mmHg 80%
    18:00 +24°C° 1.1 mm 0 mps 697 mmHg 84%
    19:00 +25°C° 0.2 mm 1 mps 697 mmHg 86%
    20:00 +24°C° 0.2 mm 1 mps 697 mmHg 87%
    21:00 +24°C° 0.2 mm 1 mps 697 mmHg 88%
    22:00 +23°C° 0.1 mm 1 mps 697 mmHg 89%
    23:00 +23°C° 0.1 mm 1 mps 697 mmHg 89%
    Show more